Regional Weather Roundup
Issued by NWS

Current Version | Previous Version | Text Only | Print | Product List | Glossary On
Versions: 1 2 3 4 5 6 7 8 9 10 11 12 13 14 15 16 17 18 19 20 21 22 23 24 25 26 27 28 29 30 31 32 33 34 35 36 37 38 39 40 41 42 43 44 45 46 47 48 49 50
000
ASUS43 KLOT 070110
RWRIL

ILLINOIS REGIONAL WEATHER ROUNDUP
NATIONAL WEATHER SERVICE CHICAGO/ROMEOVILLE IL
700 PM CST FRI MAR 06 2015

NOTE: "FAIR" INDICATES FEW OR NO CLOUDS BELOW 12,000 FEET WITH NO
SIGNIFICANT WEATHER AND/OR OBSTRUCTIONS TO VISIBILITY.

* THESE STATIONS ARE NOT UNDER NWS QUALITY CONTROL. THEY ALSO MAY NOT
  REPORT WEATHER SUCH AS PRECIPITATION OR FOG.

ILZ001-002-007-009-015-016-024-070200-
NORTHWEST ILLINOIS

CITY           SKY/WX    TMP DP  RH WIND       PRES   REMARKS
MOLINE         CLEAR     34  23  64 VRB3      30.14F
STERLING*      CLEAR     28  21  74 S3        30.16F
SAVANNA*       CLEAR     26  20  78 S6        30.14S WCI  19
$$

ILZ003-004-008-010-011-017-018-070200-
NORTH CENTRAL ILLINOIS

CITY           SKY/WX    TMP DP  RH WIND       PRES   REMARKS
ROCKFORD       PTCLDY    26  19  74 S9        30.15S WCI  17
FREEPORT*      CLEAR     27  20  75 S14       30.14S WCI  15
ROCHELLE*      CLEAR     22  18  85 S12       30.16F WCI  10
DE KALB*       CLEAR     20  17  84 S15       30.16S WCI   7
PERU*          CLEAR     28  21  76 S14       30.20S WCI  16
$$

ILZ005-006-012>014-019>023-070200-
NORTHEAST ILLINOIS

CITY           SKY/WX    TMP DP  RH WIND       PRES   REMARKS
CHICAGO-OHARE  PTCLDY    25  16  68 SW13G23   30.17S WCI  14
CHICAGO-MIDWAY PTCLDY    25  15  66 SW15      30.20S WCI  13
AURORA         FAIR      23  15  71 S10       30.19S WCI  12
LANSING*       CLEAR     22  15  75 SW16      30.22S WCI   8
JOLIET*        CLEAR     24  17  75 S9        30.22S WCI  14
WAUKEGAN       CLEAR     24  17  74 SW18      30.13S WCI  10
DUPAGE AIRPORT CLEAR     23  16  74 S14       30.17S WCI  11
KANKAKEE*      CLEAR     21  15  77 S14       30.25S WCI   8
WHEELING       CLEAR     25  16  68 S13       30.18S WCI  14
MORRIS*        CLEAR     22  18  84 S9        30.21S WCI  12
ROMEOVILLE*    CLEAR     23  17  77 S14       30.21R WCI  11
NORTHERLY ISL    N/A     25  15  66 SW12        N/A  WCI  14
$$

LMZ740>746-070200-
SOUTHERN LAKE MICHIGAN

STATION/POSITION SKY/WX   TEMP    WIND        PRES    VSBY  WAVE
                          AIR SEA DIR/SP/G                  HT/PER
                          (F)     (DEG/KT/KT) (MB)    (MI)  (FT/S)
WAUKEGAN HARBOR            26                   N/A
HARRISON CRIB              25     200/ 23/ 29   N/A
BURNHAM HARBOR             25     230/  9/ 16   N/A
CALUMET HARBOR             24     200/ 15/ 20 1021.2F
MICHIGAN CITY              23     170/ 16/ 19   N/A
$$

ILZ025>027-034>036-040-047-049-050-058-095>099-070200-
WEST-CENTRAL ILLINOIS

CITY           SKY/WX    TMP DP  RH WIND       PRES   REMARKS
QUINCY         PTCLDY    39  26  59 S8        30.21S WCI  33
GALESBURG*     CLEAR     33  26  77 S6        30.18S WCI  27
MACOMB*        CLEAR     37  29  71 S8        30.21F WCI  31
JACKSONVILLE*  PTCLDY    38  26  60 S7        30.23S WCI  33
PITTSFIELD*    PTCLDY    43  29  58 SW6       30.24S
$$

ILZ028>032-037-038-041>044-048-051>054-059>061-070200-
CENTRAL ILLINOIS

CITY           SKY/WX    TMP DP  RH WIND       PRES   REMARKS
PONTIAC        CLEAR     26  19  77 S14       30.23F WCI  14
BLOOMINGTON    CLEAR     24  18  78 S16       30.24S WCI  11
DECATUR        CLEAR     27  17  66 S10       30.28R WCI  17
PEORIA         CLEAR     30  21  69 S9        30.23R WCI  22
LACON*         CLEAR     29  20  68 S8        30.20S WCI  21
LINCOLN*       CLEAR     28  20  74 S9        30.28R WCI  19
SPRINGFIELD    CLEAR     30  21  69 S12       30.26S WCI  20
TAYLORVILLE    CLEAR     28  19  69 S14       30.28R WCI  17
$$

ILZ033-039-045-046-055>057-062-063-070200-
EAST-CENTRAL ILLINOIS

CITY           SKY/WX    TMP DP  RH WIND       PRES   REMARKS
CHAMPAIGN      CLEAR     20  12  71 S12       30.28S WCI   8
DANVILLE*      CLEAR     22  13  67 S12       30.27S WCI  11
RANTOUL*       CLEAR     22  15  75 S13       30.28S WCI   9
MATTOON        CLEAR     25  13  60 S10       30.29S WCI  15
PARIS*         CLEAR     21  13  72 S9        30.32S WCI  10
$$

ILZ079-100>102-070200-
SOUTHWEST ILLINOIS

CITY           SKY/WX    TMP DP  RH WIND       PRES   REMARKS
BELLEVILLE     CLEAR     31  21  67 VRB5      30.31R WCI  26
CAHOKIA*       CLEAR     34  22  61 SE13      30.29S WCI  25
SPARTA*        CLEAR     28  17  63 S14G20    30.36R WCI  17
$$

ILZ064>066-069>071-074>076-080>082-084>086-088>090-092>094-070200-
SOUTH-CENTRAL ILLINOIS

CITY           SKY/WX    TMP DP  RH WIND       PRES   REMARKS
CARBONDALE     CLEAR     25  13  60 S14       30.40F WCI  13
CAIRO*         CLEAR     28  15  58 S7        30.45S WCI  21
EFFINGHAM*     CLEAR     29  12  49 S9        30.34R WCI  21
MARION         CLEAR     27  14  59 S14       30.41S WCI  15
MT. VERNON     CLEAR     28  16  59 S15       30.37S WCI  17
CENTRALIA*     CLEAR     28  17  62 S15       30.34S WCI  17
SALEM*         CLEAR     31  17  56 S14       30.34S WCI  20
METROPOLIS*    CLEAR     27  14  59 SW5       30.44R WCI  21
$$

ILZ067-068-072-073-078-083-087-091-070200-
SOUTHEAST ILLINOIS

CITY           SKY/WX    TMP DP  RH WIND       PRES   REMARKS
LAWRENCEVILLE  CLEAR     26  12  55 S13       30.37F WCI  15
FLORA*         CLEAR     28  15  57 S14       30.36S WCI  17
FAIRFIELD*     CLEAR     28  16  63 S9        30.38R WCI  19
HARRISBURG*    CLEAR     27  14  57 S8        30.43S WCI  19
ROBINSON*      CLEAR     23  12  63 S7        30.37F WCI  14
CARMI*         CLEAR     26  17  67 S10       30.40S WCI  16
$$

ABBREVIATIONS USED IN REMARKS
   TC - TEMPERATURE IN CELSIUS
  WCI - WIND CHILL INDEX
   HX - HEAT INDEX
  VSB - VISIBILITY
$$



USA.gov is the U.S. government's official web portal to all federal, state and local government web resources and services.